Location: Caltech
(34.1382°N, 118.1253°W)
Time: 19:40:18
(UTC-08:00)

SEDSat Delta rocket - Visible Passes

Search period start: 11 February 2016 00:00
Search period end: 21 February 2016 00:00
Orbit: 533 x 1004 km, 31.4° (Epoch: 11 February)

Date Brightness Start Highest point End Pass type
(mag) Time Alt. Az. Time Alt. Az. Time Alt. Az.
11 Feb 5.4 04:01:24 21° SE 04:01:24 21° SE 04:03:31 10° SE visible
11 Feb 5.4 05:41:34 11° WSW 05:44:25 16° SSW 05:47:54 10° S visible
12 Feb 5.1 05:03:54 18° SSW 05:04:15 18° SSW 05:07:52 10° SSE visible
13 Feb 5.5 04:26:16 15° S 04:26:16 15° S 04:27:47 10° SSE visible
17 Feb 5.2 19:42:46 10° SSW 19:44:30 17° SSW 19:44:30 17° SSW visible
18 Feb 4.7 19:02:42 10° SSW 19:06:20 20° SSE 19:06:55 20° SSE visible
19 Feb 5.0 18:22:38 10° SSW 18:26:14 19° SSE 18:29:18 11° ESE visible
19 Feb 5.1 20:07:30 10° WSW 20:09:28 22° SW 20:09:28 22° SW visible
20 Feb 3.8 19:27:12 10° SW 19:31:49 41° S 19:31:49 41° S visible
